GSAT-7A

Last updated on Wed Sep 17 2025 00:02:50 GMT+0000 (Coordinated Universal Time)

1 43864U 18105A 25259.59621207 .00000007 00000+0 00000+0 0 9990 2 43864 0.0470 87.7264 0002027 106.1303 79.3618 1.00272912 24708
UTC large
Height (km)
Speed (km/s)
/
Latitude / Longitude
Inclination (degrees)
Orbital Period (minutes)
Azimuth
Elevation
Range (km)
Doppler Factor

Next 0 passes for location: London (51.5072 / 0.1276)

Sorry there are no passes over London.